Theta_e
351 348 343 340 339 336 333 330 327 325 324 322 320 320 320 321 321 320 320 319 319 318 317 317 316 315 314 315 313 315 315 315 315 314 314 313 311 308 306 306 305 306 306
349 343 340 337 334 332 329 327 324 322 321 320 319 319 320 320 319 319 318 318 318 317 317 316 315 314 312 312 311 312 313 313 313 313 312 311 309 306 305 304 304 304 304
344 339 336 333 331 328 327 324 323 321 320 319 318 318 318 318 318 318 318 318 318 317 315 315 314 312 310 308 307 309 311 311 312 311 311 310 308 306 304 303 303 303 304
336 334 332 330 328 326 324 322 321 320 319 318 317 316 316 317 317 318 318 317 316 315 315 315 313 310 307 304 304 306 309 310 311 311 310 308 307 305 304 303 303 303 303
331 329 327 326 325 323 321 320 319 318 317 315 312 309 308 312 314 316 316 317 316 315 314 313 311 309 306 303 302 308 309 310 311 309 308 307 306 305 304 303 303 303 303
326 326 325 323 321 320 319 318 318 317 315 314 311 307 307 310 312 314 315 316 315 314 312 308 308 306 301 302 306 309 309 310 309 308 306 304 304 304 304 303 302 303 304
324 323 322 321 320 319 318 318 317 316 314 311 307 304 304 306 308 311 314 315 315 313 312 306 305 302 299 301 305 307 307 309 306 306 303 302 301 300 300 301 301 302 304
322 321 320 320 319 318 318 317 317 316 315 312 308 303 300 300 305 308 311 313 311 311 308 302 299 298 299 299 303 303 304 305 305 306 305 302 301 300 300 300 301 303 305
322 321 319 318 318 318 317 316 315 314 312 310 309 306 298 296 299 305 306 306 307 308 303 300 298 299 300 299 301 302 302 302 305 306 305 302 302 301 300 300 301 303 305
320 319 318 317 317 317 316 315 313 311 309 306 302 302 300 296 297 298 299 297 303 304 302 298 297 299 300 300 301 301 301 302 304 304 303 303 302 302 301 301 301 303 304
318 317 317 316 316 315 314 313 311 310 308 307 305 303 300 297 295 295 295 295 299 302 300 297 297 298 299 300 300 300 300 302 303 303 302 303 302 302 302 302 302 302 303
316 315 315 314 314 314 313 313 312 311 309 307 306 303 299 296 294 294 294 295 295 298 298 297 296 297 297 297 297 298 298 300 302 302 303 302 302 302 302 302 302 302 303
314 314 314 314 314 313 313 313 313 311 311 309 306 300 294 292 291 292 293 294 295 296 297 296 296 296 296 296 297 297 297 297 300 300 302 301 302 303 303 303 302 302 303
314 312 308 302 302 302 303 304 304 304 303 302 301 298 293 290 290 291 292 293 294 295 297 296 296 296 296 296 296 296 296 296 298 297 299 301 302 303 303 303 303 302 303
305 301 299 298 298 297 295 293 295 296 296 294 291 291 291 289 290 291 292 293 294 296 296 295 295 295 295 295 296 296 295 295 297 297 298 300 301 302 302 303 303 302 302
303 300 297 295 292 290 289 288 288 289 290 291 291 290 290 290 291 292 293 293 294 294 295 294 294 293 294 294 294 295 295 295 295 296 297 298 300 302 302 303 302 302 302
301 300 298 297 296 293 292 291 290 290 291 291 291 291 291 292 293 294 294 294 293 294 293 293 293 293 292 292 292 293 294 294 294 296 296 298 298 301 302 302 301 301 301
303 303 302 301 299 297 297 297 297 296 294 292 293 293 293 293 293 293 294 294 293 293 292 292 291 291 291 291 291 291 292 292 293 294 296 297 296 299 301 302 301 301 300
305 305 305 304 303 301 300 300 299 299 298 296 294 294 294 294 294 293 293 293 292 292 292 291 290 290 290 289 290 289 290 290 291 293 294 296 296 297 300 302 301 300 299
303 302 301 300 300 300 299 298 296 295 295 294 294 294 294 294 294 293 292 292 292 291 291 291 290 289 288 288 288 287 288 289 290 291 292 292 296 295 298 301 301 299 298
301 301 301 300 300 299 298 297 295 294 293 293 292 293 294 294 293 293 292 292 291 291 290 290 289 288 287 286 286 286 286 287 288 289 290 292 295 294 296 300 300 298 297
300 300 300 299 299 298 298 297 297 296 295 294 293 293 293 293 293 292 292 291 291 290 290 288 288 287 285 285 284 284 285 286 287 287 289 291 294 293 295 299 298 297 297
299 299 298 298 297 297 297 296 296 295 295 294 293 293 293 292 292 292 291 291 290 290 289 288 287 286 284 283 283 283 284 286 288 287 290 291 293 292 294 298 297 296 295
298 297 298 298 297 297 296 294 294 294 294 293 293 292 292 292 291 291 291 291 291 290 289 288 286 285 283 282 282 284 286 287 288 289 290 291 291 292 293 296 295 294 293
298 297 297 297 297 296 296 295 295 294 293 293 292 292 292 291 291 291 290 290 290 290 289 289 287 284 283 281 282 283 286 287 288 289 290 290 290 291 292 294 294 293 292
298 298 297 297 296 296 295 295 294 294 293 293 292 291 291 291 291 290 290 290 290 289 289 288 287 285 281 281 281 282 284 286 287 288 289 289 290 291 291 294 294 292 291
Wind_Speed
38 36 39 37 35 27 29 29 29 29 25 23 20 20 17 15 12 10 12 13 13 14 14 15 17 17 18 18 20 19 20 19 13 25 25 28 28 33 38 39 37 32 34
38 39 40 39 38 27 28 29 29 29 25 23 20 19 16 15 13 13 13 13 14 14 14 15 16 16 18 19 20 20 20 21 21 20 28 29 31 34 35 36 33 33 32
40 38 36 43 33 28 29 30 29 28 25 21 20 19 17 14 14 14 14 14 14 15 14 12 13 16 19 21 20 20 19 21 21 24 26 28 30 32 35 36 33 35 31
44 41 39 34 32 30 31 31 29 27 25 23 21 19 14 13 14 15 13 14 13 12 12 13 10 15 20 25 22 20 21 22 23 22 24 29 27 30 28 27 38 37 38
42 44 39 34 33 32 34 30 29 28 26 24 23 20 17 18 16 13 15 13 12 11 15 15 10 17 23 24 22 24 29 23 19 21 24 26 28 30 27 27 30 33 35
43 38 35 33 34 35 32 30 30 27 26 25 23 20 19 17 14 13 13 12 12 13 14 15 16 21 27 28 22 24 24 18 18 19 22 25 26 26 28 26 27 28 11
40 35 34 34 36 33 31 31 29 27 25 24 21 20 20 17 13 11 10 10 11 11 10 15 16 18 27 31 24 24 24 22 22 15 22 26 26 29 29 30 30 29 22
36 35 33 34 35 32 31 30 27 25 24 23 21 19 22 21 13 10 12 11 11 13 11 17 23 26 26 29 23 25 25 23 22 16 28 32 33 33 29 26 28 30 23
34 33 34 34 33 31 30 28 26 24 23 22 21 18 24 26 21 16 18 18 14 12 17 21 25 25 24 25 24 24 27 28 25 22 26 31 35 34 32 32 30 27 21
33 35 34 33 32 31 29 27 25 23 22 21 22 21 19 26 27 25 19 17 15 18 16 20 21 24 25 24 25 24 24 29 27 25 29 29 39 36 36 37 32 26 22
37 37 35 33 33 31 28 25 25 23 22 21 20 20 24 24 26 26 25 26 18 17 17 21 21 24 27 24 24 28 28 25 24 25 26 28 34 36 39 41 37 31 25
38 38 35 32 29 28 27 24 22 20 18 18 19 21 22 21 19 22 22 20 20 17 16 16 22 22 24 26 28 28 29 27 25 27 25 29 30 34 39 39 37 38 24
37 36 34 32 28 25 21 18 15 14 14 17 18 20 20 19 19 19 20 17 19 16 14 18 21 23 24 25 27 29 30 30 28 27 25 29 30 34 35 37 34 34 25
38 33 30 33 33 31 27 25 26 23 23 22 20 19 18 20 24 25 23 22 20 20 19 20 22 23 25 25 28 29 30 31 27 28 28 28 30 31 32 33 31 34 26
36 34 34 36 35 34 33 30 31 25 21 20 18 19 16 15 19 22 21 22 23 20 18 19 23 25 27 28 27 28 29 32 28 30 31 29 30 31 32 33 30 30 26
34 30 31 31 31 31 33 38 33 29 25 22 19 19 20 18 17 15 22 23 21 21 19 21 24 25 26 27 27 28 29 31 31 30 30 30 30 29 31 33 29 30 27
35 31 30 28 26 25 25 26 26 28 30 31 30 27 22 19 19 17 14 22 24 22 23 23 23 23 24 25 26 27 27 29 30 29 30 30 32 27 30 31 31 29 28
31 29 27 26 26 24 22 21 19 18 17 16 21 22 22 24 23 23 20 19 23 25 24 24 23 24 24 26 26 27 27 29 30 30 31 30 34 29 29 26 31 28 28
26 25 23 22 22 22 21 20 19 18 15 13 10 11 12 16 20 22 22 23 22 23 22 23 24 24 24 26 26 28 27 28 30 30 33 31 33 32 28 27 29 30 29
31 30 28 24 23 22 21 21 20 18 18 16 14 12 12 16 18 19 22 22 22 22 23 22 24 24 25 27 27 28 28 28 30 31 32 34 30 34 29 26 27 28 28
25 23 23 22 21 21 20 21 20 19 18 17 14 16 16 17 17 19 20 20 21 21 22 22 23 24 25 26 27 27 28 29 30 31 33 36 29 34 29 25 28 28 27
23 22 23 22 21 20 19 18 18 17 16 16 15 15 17 17 18 18 18 19 19 20 20 22 22 24 25 25 27 26 29 34 34 33 36 33 28 33 29 25 29 28 25
24 24 23 23 22 21 19 18 17 17 16 16 16 16 16 17 17 17 17 17 18 18 19 20 23 22 25 27 29 25 30 33 34 34 34 30 28 33 29 25 27 27 28
24 24 22 20 19 20 19 19 19 17 16 16 16 16 16 16 16 16 15 16 16 17 17 19 20 21 23 28 29 27 27 29 32 32 31 29 29 33 30 26 28 26 26
23 23 22 21 19 19 18 17 17 16 16 16 16 15 15 14 15 15 14 14 15 16 17 18 18 20 21 27 28 27 24 24 27 29 29 29 31 31 32 27 30 27 27
22 21 20 20 19 19 17 16 16 15 15 15 15 14 14 13 13 13 14 14 14 15 15 17 16 19 23 26 27 27 25 23 25 29 29 30 32 29 34 27 33 29 28
Wind_Direction
147 142 128 120 118 113 119 118 116 114 113 103 97 88 80 76 72 70 71 56 51 49 41 37 29 14 9 5 355 349 343 346 333 320 328 332 343 345 341 338 336 331 327
142 129 123 120 112 125 122 116 114 108 104 101 99 93 92 84 78 71 64 59 56 48 37 33 26 16 9 0 353 345 342 345 330 328 330 335 342 342 336 336 332 326 323
127 122 118 107 122 128 119 115 110 107 105 104 100 97 91 87 79 70 65 57 54 43 33 24 24 12 7 356 352 342 339 335 335 332 329 335 336 339 337 334 334 329 327
119 117 107 121 126 128 117 109 108 107 105 99 95 92 95 96 85 70 62 54 47 38 29 24 26 23 8 356 352 341 331 327 332 334 335 336 335 336 336 334 332 336 331
114 113 118 129 127 117 108 109 107 103 102 98 91 84 79 78 74 68 68 54 48 38 35 27 26 10 2 2 351 351 349 337 343 343 339 335 334 335 338 334 328 327 330
108 113 128 123 112 106 108 106 103 101 98 95 89 85 80 75 74 70 67 52 46 36 34 23 26 358 356 3 12 10 360 4 1 349 345 340 338 342 334 332 328 329 332
117 125 119 115 108 108 106 103 100 98 98 95 86 80 70 64 61 62 61 54 42 33 38 21 18 4 2 5 14 3 4 6 3 3 9 356 342 341 338 334 330 327 318
119 118 117 109 106 105 104 102 102 101 96 91 84 72 65 53 47 39 39 55 41 34 42 31 19 9 13 8 14 3 5 1 359 341 3 359 353 352 346 334 325 321 324
114 113 108 106 107 108 106 104 102 99 92 86 82 72 60 52 44 47 47 34 31 37 30 20 12 11 11 10 15 4 359 357 8 2 353 359 1 358 360 353 347 341 339
110 108 108 109 108 106 105 105 105 102 99 94 84 79 61 51 42 44 44 36 37 24 31 20 6 14 11 14 10 0 354 356 2 359 356 354 1 1 3 2 351 345 343
107 105 105 103 103 104 106 104 102 103 102 98 91 72 62 48 43 40 42 42 36 22 22 14 7 12 12 18 17 9 9 359 360 359 356 355 356 358 2 360 1 350 341
105 104 103 104 104 104 105 107 109 109 112 112 98 80 59 43 46 41 37 41 34 28 15 4 15 18 18 17 19 15 10 8 2 360 1 1 354 356 358 357 1 359 1
106 103 103 103 104 105 104 109 117 114 108 92 85 77 58 39 37 45 36 41 43 24 23 28 29 25 25 21 19 17 13 6 5 3 2 359 355 357 355 358 359 357 7
106 101 92 85 83 84 89 84 77 63 64 60 60 72 62 43 46 45 42 35 34 30 41 34 31 30 27 21 19 15 12 4 9 4 359 356 359 1 2 1 358 358 5
96 92 89 90 91 88 82 75 76 71 82 77 75 75 65 53 47 50 42 33 31 45 41 36 33 29 25 20 16 12 9 6 6 5 2 359 0 3 4 4 4 1 5
99 97 97 96 94 93 90 85 80 81 80 81 83 73 70 61 46 40 54 43 47 46 41 36 37 31 25 18 13 7 7 5 1 3 2 3 358 3 4 5 7 6 2
108 111 112 110 109 107 102 100 96 85 80 76 73 73 71 64 55 50 54 51 44 45 41 36 34 30 26 20 15 9 4 1 360 2 359 2 360 3 8 9 6 7 2
117 117 116 117 118 120 123 125 116 106 95 85 80 73 72 66 56 47 51 50 43 40 42 36 30 24 25 18 15 10 5 1 359 358 358 3 2 358 7 10 10 8 2
117 118 118 115 110 106 101 97 93 94 109 113 90 70 62 63 59 51 48 49 45 38 35 37 31 25 23 18 15 11 7 1 360 359 356 356 4 357 5 10 13 10 8
102 103 105 110 112 110 105 100 95 87 78 71 64 44 54 63 57 51 50 46 45 40 31 35 33 27 23 18 13 9 6 3 359 358 354 352 2 358 3 12 15 11 7
122 122 119 113 109 107 105 103 102 97 92 86 74 62 70 70 62 58 51 48 46 42 34 33 34 29 22 18 14 9 7 4 3 355 353 354 2 358 2 15 14 14 13
122 114 108 107 109 107 107 107 108 110 112 108 99 74 68 66 65 60 57 52 46 45 40 36 35 32 24 19 15 10 7 8 10 0 358 1 2 360 1 21 15 11 10
114 111 105 101 106 109 106 103 100 95 91 86 80 73 65 62 56 59 56 54 52 47 43 41 37 30 21 22 25 20 13 11 9 6 5 6 2 2 1 24 17 12 7
113 118 121 115 105 97 94 90 90 93 92 86 80 75 72 68 62 53 51 53 49 50 44 43 37 30 21 25 26 25 20 16 16 17 18 11 5 6 2 27 19 16 10
113 110 114 118 116 111 103 96 93 92 90 85 82 79 74 69 66 59 47 46 49 47 43 43 33 30 22 24 25 26 24 26 26 24 21 14 15 10 7 31 22 18 18
118 118 117 113 108 107 107 106 101 97 92 87 82 75 72 71 64 59 51 44 44 45 44 37 28 19 22 23 23 24 26 28 30 28 23 17 14 16 15 31 26 23 23